Miscellaneous Local Product
Issued by NWS North Platte, NE

Home | Current Version | Previous Version | Text Only | Print | Product List | Glossary On
Versions: 1 2 3 4 5 6 7 8 9 10 11 12 13 14 15 16 17 18 19 20 21 22 23 24 25 26 27 28 29 30 31 32 33 34 35 36 37 38 39 40 41 42 43 44 45 46 47 48 49 50
000
AXUS43 KLBF 201510
MISLBF


WESTERN AND NORTH CENTRAL NEBRASKA HOURLY WEATHER ROUNDUP
NATIONAL WEATHER SERVICE NORTH PLATTE NE
1000 AM CDT SUN AUG 20 2017

NOTE: "FAIR" INDICATES FEW OR NO CLOUDS BELOW 12,000 FEET WITH NO
SIGNIFICANT WEATHER AND/OR OBSTRUCTIONS TO VISIBILITY.

NOTE: STATIONS NOT REPORTING VARIABLES SUCH AS SKY/WEATHER OR
PRESSURE ARE PROVIDED BY RAWS AND APRS NETWORKS AND ARE NOT UNDER
NATIONAL WEATHER SERVICE QUALITY CONTROL.

...OBSERVATIONS IN AND NEAR THE EASTERN PANHANDLE OF NEBRASKA...

CITY           SKY/WX    TMP DP  RH WIND       PRES   REMARKS
PINE RIDGE     SUNNY     70  54  56 E8        30.08R
GORDON         FAIR      71  54  54 E14       30.05R
CHADRON        SUNNY     68  50  52 N8        30.09R
ALLIANCE       SUNNY     71  56  58 E15       30.06R
SIDNEY         MOSUNNY   66  51  58 N9        30.08R
CRESCENT LAKE    N/A     71  61  70 E14G29      N/A
$$

...OBSERVATIONS IN NORTHERN NEBRASKA AND FAR SOUTHERN SOUTH DAKOTA...

CITY           SKY/WX    TMP DP  RH WIND       PRES   REMARKS
WINNER         FAIR      72  61  68 NE9       30.00S
VALENTINE      SUNNY     76  57  51 NE18      30.01S
THEDFORD       SUNNY     73  64  73 NE14      30.00R
AINSWORTH      SUNNY     73  65  78 E6        30.01R
O`NEILL        SUNNY     75  59  58 CALM      29.99R
ORD            SUNNY     71  61  70 SE8       29.94R
BROKEN BOW     SUNNY     71  63  75 SE6       29.94F
VALENTINE NWR    N/A     70  65  85 E13         N/A
HALSEY           N/A     70  62  76 NE7         N/A
BUTTE            N/A     70  66  88 NW5G12      N/A
CHAMBERS         N/A     77  62  58 NW3         N/A
EWING            N/A     75  64  68 N5          N/A
$$

...OBSERVATIONS IN SOUTHWEST NEBRASKA AND FAR NORTHEAST COLORADO...

CITY           SKY/WX    TMP DP  RH WIND       PRES   REMARKS
HOLYOKE        FAIR      73  61  64 N9        30.01S
IMPERIAL       MOSUNNY   74  62  66 N15       29.96S
OGALLALA       SUNNY     73  61  65 NE16      29.98S
NORTH PLATTE   SUNNY     75  65  70 E9        29.94S
MCCOOK         SUNNY     74  59  59 NE3       29.94R
LEXINGTON      MOSUNNY   72  66  83 E5        29.94S
STAPLETON        N/A     70  64  81 CALM        N/A
GOTHENBURG       N/A     66  60  81 NE5         N/A
CALLAWAY         N/A     66  65  96 E5          N/A
$$

...OBSERVATIONS IN CENTRAL LINCOLN COUNTY AREA...

CITY           SKY/WX    TMP DP  RH WIND       PRES   REMARKS
N.P. AIRPORT   SUNNY     75  65  70 E9        29.94S
N.P. DOWNTOWN    N/A     74  65  74 E3          N/A
N.P. SOUTHEAST   N/A     74  65  74 CALM        N/A
N.P. HILLCREST   N/A     74  65  74 NE12G18     N/A
$$

...SOME OBSERVATIONS FROM AROUND THE REGION...

CITY           SKY/WX    TMP DP  RH WIND       PRES   REMARKS
DENVER         CLOUDY    75  39  27 SW9       30.11R
LIMON          CLOUDY    76  51  41 NW8       30.10R
ASPEN          SUNNY     62  36  37 CALM      30.32S
LARAMIE        SUNNY     62  36  37 S7        30.26S
CASPER         SUNNY     63  36  36 SW6       30.14R
CHEYENNE       SUNNY     66  37  34 N14       30.19R
SCOTTSBLUFF    CLOUDY    68  56  65 E8        30.09R
GRAND ISLAND   CLOUDY    74  67  78 E5        29.94R
OMAHA          CLOUDY    71  64  78 E9        29.94R THUNDER
SIOUX FALLS    MOSUNNY   74  66  76 NE7       29.95R
PIERRE         MOSUNNY   70  52  52 E20       29.96F
RAPID CITY     SUNNY     67  47  48 N8        30.11R
BISMARCK       CLOUDY    64  49  57 NW3       30.07R
KANSAS CITY    MOSUNNY   74  68  81 SE12      30.00F
HILL CITY      SUNNY     82  66  58 SW9       29.91S
WICHITA        PTSUNNY   84  70  62 S13       29.97S
DODGE CITY     SUNNY     82  64  54 SW13G21   29.98S
OKLAHOMA CITY  PTSUNNY   83  70  64 S13       30.01R
DALLAS         MOSUNNY   89  69  51 S9        30.00R HX  93
AMARILLO       MOSUNNY   75  61  61 S13       30.08R
$$




USA.gov is the U.S. government's official web portal to all federal, state and local government web resources and services.